Capt. Ted — WDD6210 — position and weather

sailwx.info

Track history (hours):
 
Tides and Currents Weather Stations Pressure Air Temp Water Temp Dewpoint Dewpoint Depression Visibility Wind Speed Wind Dir Waves Ship Positions

Capt. Ted

Owner: Salisbury Towing Corporation, Richmond, VA. More information available from US FCC via Universal Licensing System and Coast Guard Vessel Documentation Center.

Last reported at 2017-Oct-19 06:20 UTC. Time now 2017-Oct-19 07:27 UTC.
Position N 38°13' W 076°08'.

Length 32 m; draft 2.8 m.

Type: Tug. MMSI: 367169710.

Date/timePositionNaut miles runAvg speedWind from/ knotsBaromVisibWave heightAir tempDewpointWater temp
2017-Oct-19 06:20N 38°13' W 076°08'40 6.0
2017-Oct-18 23:43N 38°50' W 076°26'1 6.4
2017-Oct-18 23:30N 38°51' W 076°26'3 6.3
2017-Oct-18 23:00N 38°54' W 076°25'3 5.9
2017-Oct-18 22:30N 38°57' W 076°24'3 5.7
2017-Oct-18 22:00N 38°60' W 076°23'3 5.2
2017-Oct-18 21:30N 39°02' W 076°23'3 5.1
2017-Oct-18 21:00N 39°05' W 076°24'4 7.7
2017-Oct-18 20:30N 39°01' W 076°23'5 9.7
2017-Oct-18 20:00N 38°56' W 076°24'5 9.3
2017-Oct-18 19:28N 38°51' W 076°26'49 8.5
2017-Oct-18 13:43N 38°03' W 076°18'3 6.8
2017-Oct-18 13:20N 38°02' W 076°20'3 9.0
2017-Oct-18 13:00N 38°03' W 076°24'5 9.0
2017-Oct-18 12:30N 38°05' W 076°29'5 9.2
2017-Oct-18 11:59N 38°08' W 076°33'6 9.4
2017-Oct-18 11:19N 38°11' W 076°41'3 9.3
2017-Oct-18 10:58N 38°12' W 076°45'4 9.3
2017-Oct-18 10:30N 38°14' W 076°50'  
2017-Oct-15 08:02N 38°37' W 077°13'0 4.9
2017-Oct-15 07:59N 38°36' W 077°12'3 5.7
2017-Oct-15 07:30N 38°34' W 077°14'3 6.9
2017-Oct-15 07:00N 38°31' W 077°16'11 4.7
2017-Oct-15 04:45N 38°24' W 077°07'2 7.7
2017-Oct-15 04:30N 38°24' W 077°04'5 6.0
2017-Oct-15 03:38N 38°21' W 076°59'1 7.6
2017-Oct-15 03:30N 38°20' W 076°59'4 6.6
2017-Oct-15 02:58N 38°17' W 076°57'3 6.9
2017-Oct-15 02:30N 38°15' W 076°53'4 6.9
2017-Oct-15 01:55N 38°13' W 076°49'3 7.2
2017-Oct-15 01:30N 38°12' W 076°45'3 7.0
2017-Oct-15 01:01N 38°11' W 076°41'4 7.0
2017-Oct-15 00:30N 38°10' W 076°37'5 7.1
2017-Oct-14 23:52N 38°08' W 076°32'3 7.0
2017-Oct-14 23:30N 38°06' W 076°30'3 6.8
2017-Oct-14 23:00N 38°04' W 076°26'3 6.7
2017-Oct-14 22:30N 38°02' W 076°22'3 6.5
2017-Oct-14 22:00N 38°01' W 076°18'4 6.8
2017-Oct-14 21:29N 38°04' W 076°16'3 7.1
2017-Oct-14 21:00N 38°07' W 076°13'5 6.8
2017-Oct-14 20:17N 38°11' W 076°10'2 6.5
2017-Oct-14 20:00N 38°12' W 076°08'3 5.9
2017-Oct-14 19:30N 38°13' W 076°05'3 5.7
2017-Oct-14 19:00N 38°12' W 076°01'3 5.5
2017-Oct-14 18:28N 38°12' W 075°57'6 6.5
2017-Oct-14 17:29N 38°19' W 075°55'3 5.7
2017-Oct-14 17:00N 38°21' W 075°53'3 5.0
2017-Oct-14 16:29N 38°23' W 075°52'2 3.8
2017-Oct-14 15:56N 38°25' W 075°51'2 3.3
2017-Oct-14 15:18N 38°27' W 075°50'2 4.1
2017-Oct-14 14:47N 38°29' W 075°49'2 5.1
2017-Oct-14 14:28N 38°30' W 075°47'38 3.4
2017-Oct-14 03:00N 38°02' W 076°21'4 8.5
2017-Oct-14 02:30N 38°04' W 076°25'4 8.2
2017-Oct-14 02:00N 38°06' W 076°30'1 0.0
2017-Oct-11 22:48N 38°07' W 076°31'3 7.3
2017-Oct-11 22:26N 38°05' W 076°28'3 7.1
2017-Oct-11 21:59N 38°03' W 076°25'3 7.1
2017-Oct-11 21:30N 38°01' W 076°21'4 0.2
2017-Oct-10 23:59N 38°04' W 076°26'4 8.6
2017-Oct-10 23:30N 38°06' W 076°30'45 3.8
2017-Oct-10 11:49N 38°36' W 077°12'41 4.6
2017-Oct-10 02:50N 38°08' W 076°34'3 6.6
2017-Oct-10 02:26N 38°07' W 076°31'3 6.6
2017-Oct-10 02:00N 38°05' W 076°28'3 6.6
2017-Oct-10 01:30N 38°03' W 076°24'3 6.8
2017-Oct-10 01:00N 38°02' W 076°21'3 5.3
2017-Oct-10 00:28N 38°02' W 076°17'  
Track history (hours):
 
Tides and Currents Weather Stations Pressure Air Temp Water Temp Dewpoint Dewpoint Depression Visibility Wind Speed Wind Dir Waves Ship Positions

Capt. Ted

Owner: Salisbury Towing Corporation, Richmond, VA. More information available from US FCC via Universal Licensing System and Coast Guard Vessel Documentation Center.

Last reported at 2017-Oct-19 06:20 UTC. Time now 2017-Oct-19 07:27 UTC.
Position N 38°13' W 076°08'.

Length 32 m; draft 2.8 m.

Type: Tug. MMSI: 367169710.

Date/timePositionNaut miles runAvg speedWind from/ knotsBaromVisibWave heightAir tempDewpointWater temp
2017-Oct-19 06:20N 38°13' W 076°08'40 6.0
2017-Oct-18 23:43N 38°50' W 076°26'1 6.4
2017-Oct-18 23:30N 38°51' W 076°26'3 6.3
2017-Oct-18 23:00N 38°54' W 076°25'3 5.9
2017-Oct-18 22:30N 38°57' W 076°24'3 5.7
2017-Oct-18 22:00N 38°60' W 076°23'3 5.2
2017-Oct-18 21:30N 39°02' W 076°23'3 5.1
2017-Oct-18 21:00N 39°05' W 076°24'4 7.7
2017-Oct-18 20:30N 39°01' W 076°23'5 9.7
2017-Oct-18 20:00N 38°56' W 076°24'5 9.3
2017-Oct-18 19:28N 38°51' W 076°26'49 8.5
2017-Oct-18 13:43N 38°03' W 076°18'3 6.8
2017-Oct-18 13:20N 38°02' W 076°20'3 9.0
2017-Oct-18 13:00N 38°03' W 076°24'5 9.0
2017-Oct-18 12:30N 38°05' W 076°29'5 9.2
2017-Oct-18 11:59N 38°08' W 076°33'6 9.4
2017-Oct-18 11:19N 38°11' W 076°41'3 9.3
2017-Oct-18 10:58N 38°12' W 076°45'4 9.3
2017-Oct-18 10:30N 38°14' W 076°50'  
2017-Oct-15 08:02N 38°37' W 077°13'0 4.9
2017-Oct-15 07:59N 38°36' W 077°12'3 5.7
2017-Oct-15 07:30N 38°34' W 077°14'3 6.9
2017-Oct-15 07:00N 38°31' W 077°16'11 4.7
2017-Oct-15 04:45N 38°24' W 077°07'2 7.7
2017-Oct-15 04:30N 38°24' W 077°04'5 6.0
2017-Oct-15 03:38N 38°21' W 076°59'1 7.6
2017-Oct-15 03:30N 38°20' W 076°59'4 6.6
2017-Oct-15 02:58N 38°17' W 076°57'3 6.9
2017-Oct-15 02:30N 38°15' W 076°53'4 6.9
2017-Oct-15 01:55N 38°13' W 076°49'3 7.2
2017-Oct-15 01:30N 38°12' W 076°45'3 7.0
2017-Oct-15 01:01N 38°11' W 076°41'4 7.0
2017-Oct-15 00:30N 38°10' W 076°37'5 7.1
2017-Oct-14 23:52N 38°08' W 076°32'3 7.0
2017-Oct-14 23:30N 38°06' W 076°30'3 6.8
2017-Oct-14 23:00N 38°04' W 076°26'3 6.7
2017-Oct-14 22:30N 38°02' W 076°22'3 6.5
2017-Oct-14 22:00N 38°01' W 076°18'4 6.8
2017-Oct-14 21:29N 38°04' W 076°16'3 7.1
2017-Oct-14 21:00N 38°07' W 076°13'5 6.8
2017-Oct-14 20:17N 38°11' W 076°10'2 6.5
2017-Oct-14 20:00N 38°12' W 076°08'3 5.9
2017-Oct-14 19:30N 38°13' W 076°05'3 5.7
2017-Oct-14 19:00N 38°12' W 076°01'3 5.5
2017-Oct-14 18:28N 38°12' W 075°57'6 6.5
2017-Oct-14 17:29N 38°19' W 075°55'3 5.7
2017-Oct-14 17:00N 38°21' W 075°53'3 5.0
2017-Oct-14 16:29N 38°23' W 075°52'2 3.8
2017-Oct-14 15:56N 38°25' W 075°51'2 3.3
2017-Oct-14 15:18N 38°27' W 075°50'2 4.1
2017-Oct-14 14:47N 38°29' W 075°49'2 5.1
2017-Oct-14 14:28N 38°30' W 075°47'38 3.4
2017-Oct-14 03:00N 38°02' W 076°21'4 8.5
2017-Oct-14 02:30N 38°04' W 076°25'4 8.2
2017-Oct-14 02:00N 38°06' W 076°30'1 0.0
2017-Oct-11 22:48N 38°07' W 076°31'3 7.3
2017-Oct-11 22:26N 38°05' W 076°28'3 7.1
2017-Oct-11 21:59N 38°03' W 076°25'3 7.1
2017-Oct-11 21:30N 38°01' W 076°21'4 0.2
2017-Oct-10 23:59N 38°04' W 076°26'4 8.6
2017-Oct-10 23:30N 38°06' W 076°30'45 3.8
2017-Oct-10 11:49N 38°36' W 077°12'41 4.6
2017-Oct-10 02:50N 38°08' W 076°34'3 6.6
2017-Oct-10 02:26N 38°07' W 076°31'3 6.6
2017-Oct-10 02:00N 38°05' W 076°28'3 6.6
2017-Oct-10 01:30N 38°03' W 076°24'3 6.8
2017-Oct-10 01:00N 38°02' W 076°21'3 5.3
2017-Oct-10 00:28N 38°02' W 076°17'  

Dump ship's entire track history